This is the latest recevied weather packets stored in our database for station/object OK1KZE-6. If no packets are shown the sender has not sent any weather packets the latest 10 day(s).
| Time | Temp. | Humidity | Pressure | Rain* | Wind** | Luminosity | Snow |
|---|---|---|---|---|---|---|---|
| 1778072108 | 20° C | 56% | 1008.8 hPa | - | - | - | - |
| 1778071808 | 19.44° C | 54% | 1008.8 hPa | - | - | - | - |
| 1778071508 | 19.44° C | 54% | 1008.8 hPa | - | - | - | - |
| 1778071209 | 20° C | 55% | 1008.7 hPa | - | - | - | - |
| 1778070908 | 19.44° C | 55% | 1008.9 hPa | - | - | - | - |
| 1778070608 | 20.56° C | 57% | 1009 hPa | - | - | - | - |
| 1778070307 | 20° C | 58% | 1009 hPa | - | - | - | - |
| 1778070008 | 19.44° C | 60% | 1008.9 hPa | - | - | - | - |
| 1778069708 | 18.89° C | 62% | 1009 hPa | - | - | - | - |
| 1778069407 | 18.33° C | 62% | 1009.2 hPa | - | - | - | - |
| 1778069108 | 18.33° C | 63% | 1009.2 hPa | - | - | - | - |
| 1778068807 | 17.78° C | 64% | 1009 hPa | - | - | - | - |
| 1778068507 | 17.78° C | 68% | 1009.1 hPa | - | - | - | - |
| 1778068208 | 17.78° C | 65% | 1009.4 hPa | - | - | - | - |
| 1778067909 | 17.78° C | 68% | 1009.2 hPa | - | - | - | - |
| 1778067607 | 17.22° C | 65% | 1009.3 hPa | - | - | - | - |
| 1778067308 | 17.78° C | 66% | 1009.4 hPa | - | - | - | - |
| 1778067008 | 18.33° C | 64% | 1009.3 hPa | - | - | - | - |
| 1778066708 | 18.33° C | 67% | 1009.3 hPa | - | - | - | - |
| 1778066408 | 17.78° C | 66% | 1009.6 hPa | - | - | - | - |
| 1778066108 | 17.22° C | 66% | 1009.5 hPa | - | - | - | - |
| 1778065808 | 17.78° C | 65% | 1009.6 hPa | - | - | - | - |
| 1778065507 | 17.78° C | 66% | 1009.5 hPa | - | - | - | - |
| 1778065208 | 17.22° C | 65% | 1009.6 hPa | - | - | - | - |
| 1778064908 | 17.78° C | 66% | 1009.6 hPa | - | - | - | - |
* Rain since midnight (hover to see other rain measurements)
** Current wind speed in m/s (hover to see current wind gust speed)